| time (UTC) | temp F | wind direction | speed MPH | gust MPH | rain 1hr in | rain 24hr in | rain mn in | humidity % | barometer mb |
| 20260507193056 | 60 | 250 | 1.0 | 6.0 | 0.00 | 0.28 | 0.28 | 58 | 1002.0 |
| 20260507192550 | 61 | 226 | 1.0 | 6.0 | 0.00 | 0.28 | 0.28 | 56 | 1002.3 |
| 20260507192043 | 61 | 232 | 0.0 | 3.0 | 0.00 | 0.28 | 0.28 | 58 | 1002.4 |
| 20260507191537 | 61 | 76 | 2.0 | 10.0 | 0.00 | 0.28 | 0.28 | 64 | 1002.4 |
| 20260507191030 | 61 | 134 | 2.0 | 10.0 | 0.00 | 0.28 | 0.28 | 58 | 1002.5 |
| 20260507190526 | 61 | 274 | 1.0 | 5.0 | 0.00 | 0.28 | 0.28 | 62 | 1002.2 |
| 20260507190019 | 60 | 266 | 0.0 | 3.0 | 0.00 | 0.28 | 0.28 | 66 | 1002.0 |
| 20260507185513 | 60 | 226 | 0.0 | 2.0 | 0.00 | 0.28 | 0.28 | 64 | 1002.4 |
| 20260507185007 | 60 | 69 | 0.0 | 3.0 | 0.00 | 0.28 | 0.28 | 63 | 1002.8 |
| 20260507184501 | 60 | 330 | 0.0 | 3.0 | 0.00 | 0.28 | 0.28 | 64 | 1002.8 |
| 20260507183957 | 60 | 280 | 0.0 | 2.0 | 0.00 | 0.28 | 0.28 | 63 | 1002.8 |
| 20260507183449 | 60 | 70 | 0.0 | 2.0 | 0.00 | 0.28 | 0.28 | 61 | 1002.6 |
| 20260507182944 | 60 | 210 | 0.0 | 3.0 | 0.00 | 0.28 | 0.28 | 64 | 1002.9 |
| 20260507182437 | 59 | 210 | 1.0 | 3.0 | 0.00 | 0.28 | 0.28 | 62 | 1003.0 |
| 20260507181931 | 59 | 288 | 1.0 | 5.0 | 0.00 | 0.28 | 0.28 | 60 | 1003.1 |
| 20260507181427 | 59 | 63 | 1.0 | 5.0 | 0.00 | 0.28 | 0.28 | 62 | 1002.9 |
| 20260507180919 | 59 | 41 | 1.0 | 5.0 | 0.00 | 0.28 | 0.28 | 64 | 1002.9 |
| 20260507180412 | 59 | 253 | 0.0 | 5.0 | 0.00 | 0.28 | 0.28 | 63 | 1003.0 |
| 20260507175907 | 58 | 56 | 1.0 | 3.0 | 0.00 | 0.28 | 0.28 | 58 | 1003.0 |
| 20260507175401 | 58 | 57 | 1.0 | 3.0 | 0.00 | 0.28 | 0.28 | 56 | 1002.9 |
| 20260507174857 | 59 | 243 | 0.0 | 2.0 | 0.00 | 0.28 | 0.28 | 61 | 1003.5 |
| 20260507174349 | 59 | 245 | 0.0 | 2.0 | 0.00 | 0.28 | 0.28 | 59 | 1003.5 |
| 20260507173843 | 58 | 68 | 0.0 | 2.0 | 0.00 | 0.28 | 0.28 | 63 | 1003.7 |
| 20260507173337 | 58 | 68 | 1.0 | 3.0 | 0.00 | 0.28 | 0.28 | 61 | 1003.6 |
| 20260507172831 | 58 | 61 | 1.0 | 3.0 | 0.00 | 0.28 | 0.28 | 57 | 1003.4 |
| 20260507172548 | 58 | 229 | 1.0 | 2.0 | 0.00 | 0.28 | 0.28 | 53 | 1003.7 |
| 20260507171313 | 58 | 233 | 1.0 | 3.0 | 0.00 | 0.29 | 0.28 | 54 | 1003.9 |
| 20260507170808 | 58 | 303 | 1.0 | 3.0 | 0.00 | 0.29 | 0.28 | 56 | 1003.6 |
| 20260507170301 | 58 | 65 | 1.0 | 3.0 | 0.00 | 0.29 | 0.28 | 53 | 1003.7 |
| 20260507165757 | 58 | 82 | 0.0 | 2.0 | 0.00 | 0.29 | 0.28 | 53 | 1003.7 |
| 20260507165515 | 58 | 82 | 0.0 | 2.0 | 0.00 | 0.29 | 0.28 | 54 | 1004.0 |
| 20260507164743 | 58 | 61 | 0.0 | 2.0 | 0.00 | 0.29 | 0.28 | 56 | 1004.0 |
| 20260507164237 | 58 | 62 | 0.0 | 2.0 | 0.00 | 0.29 | 0.28 | 55 | 1004.1 |
| 20260507163949 | 58 | 60 | 0.0 | 2.0 | 0.00 | 0.29 | 0.28 | 53 | 1004.2 |
| 20260507163226 | 58 | 111 | 0.0 | 1.0 | 0.00 | 0.29 | 0.28 | 55 | 1004.4 |
| 20260507162716 | 58 | 226 | 0.0 | 2.0 | 0.00 | 0.29 | 0.28 | 55 | 1004.3 |
| 20260507162211 | 57 | 226 | 0.0 | 2.0 | 0.00 | 0.29 | 0.28 | 56 | 1004.3 |
| 20260507161705 | 57 | 77 | 0.0 | 2.0 | 0.00 | 0.29 | 0.28 | 56 | 1004.3 |
| 20260507161158 | 57 | 239 | 0.0 | 2.0 | 0.00 | 0.29 | 0.28 | 60 | 1004.4 |
| 20260507160917 | 57 | 239 | 0.0 | 2.0 | 0.00 | 0.29 | 0.28 | 59 | 1004.5 |
| 20260507160146 | 56 | 238 | 1.0 | 3.0 | 0.00 | 0.29 | 0.28 | 58 | 1004.6 |
| 20260507155640 | 56 | 127 | 1.0 | 3.0 | 0.00 | 0.29 | 0.28 | 58 | 1004.7 |
| 20260507155134 | 56 | 77 | 0.0 | 3.0 | 0.00 | 0.29 | 0.28 | 59 | 1004.8 |
| 20260507154852 | 56 | 89 | 0.0 | 1.0 | 0.00 | 0.29 | 0.28 | 63 | 1004.9 |
| 20260507154124 | 56 | 89 | 0.0 | 2.0 | 0.00 | 0.29 | 0.28 | 65 | 1004.8 |
| 20260507153619 | 56 | 89 | 0.0 | 2.0 | 0.00 | 0.30 | 0.28 | 65 | 1004.8 |
| 20260507153119 | 55 | 82 | 0.0 | 3.0 | 0.00 | 0.30 | 0.28 | 65 | 1004.7 |
| 20260507152616 | 55 | 110 | 0.0 | 4.0 | 0.00 | 0.30 | 0.28 | 64 | 1004.5 |
| 20260507152117 | 55 | 98 | 0.0 | 4.0 | 0.00 | 0.30 | 0.28 | 63 | 1004.6 |
| 20260507151614 | 55 | 86 | 0.0 | 1.0 | 0.00 | 0.31 | 0.28 | 67 | 1004.7 |
| 20260507151114 | 55 | 86 | 0.0 | 3.0 | 0.00 | 0.31 | 0.28 | 68 | 1004.8 |
| 20260507150829 | 55 | 86 | 1.0 | 3.0 | 0.00 | 0.31 | 0.28 | 64 | 1005.0 |
| 20260507150108 | 55 | 219 | 0.0 | 3.0 | 0.00 | 0.31 | 0.28 | 66 | 1005.0 |
| 20260507145609 | 56 | 101 | 0.0 | 2.0 | 0.00 | 0.32 | 0.28 | 67 | 1005.0 |
| 20260507145334 | 56 | 130 | 0.0 | 2.0 | 0.00 | 0.32 | 0.28 | 69 | 1005.2 |
| 20260507144604 | 56 | 65 | 0.0 | 3.0 | 0.00 | 0.33 | 0.28 | 71 | 1005.3 |
| 20260507144104 | 56 | 52 | 0.0 | 3.0 | 0.00 | 0.34 | 0.28 | 69 | 1005.3 |
| 20260507143604 | 56 | 101 | 1.0 | 5.0 | 0.00 | 0.36 | 0.28 | 72 | 1005.4 |
| 20260507143104 | 56 | 101 | 1.0 | 7.0 | 0.00 | 0.37 | 0.28 | 66 | 1005.3 |
| 20260507142604 | 56 | 53 | 1.0 | 7.0 | 0.00 | 0.38 | 0.28 | 68 | 1005.3 |
| 20260507142058 | 56 | 101 | 1.0 | 6.0 | 0.00 | 0.38 | 0.28 | 69 | 1005.3 |
| 20260507141558 | 56 | 88 | 1.0 | 6.0 | 0.00 | 0.39 | 0.28 | 66 | 1005.2 |
| 20260507141058 | 56 | 68 | 0.0 | 6.0 | 0.00 | 0.39 | 0.28 | 72 | 1005.2 |
| 20260507140558 | 56 | 96 | 0.0 | 4.0 | 0.00 | 0.39 | 0.28 | 72 | 1005.2 |
| 20260507140059 | 56 | 92 | 1.0 | 7.0 | 0.00 | 0.39 | 0.28 | 73 | 1005.2 |
| 20260507135558 | 55 | 68 | 2.0 | 7.0 | 0.00 | 0.40 | 0.28 | 71 | 1005.4 |
| 20260507135058 | 56 | 70 | 1.0 | 5.0 | 0.00 | 0.40 | 0.28 | 71 | 1005.5 |
| 20260507134558 | 56 | 48 | 1.0 | 4.0 | 0.00 | 0.40 | 0.28 | 71 | 1005.5 |
| 20260507134058 | 56 | 292 | 0.0 | 4.0 | 0.00 | 0.40 | 0.28 | 73 | 1005.5 |
| 20260507133812 | 56 | 115 | 0.0 | 4.0 | 0.00 | 0.40 | 0.28 | 76 | 1005.6 |
| 20260507133054 | 56 | 288 | 0.0 | 4.0 | 0.00 | 0.40 | 0.28 | 72 | 1005.3 |
| 20260507132555 | 56 | 99 | 0.0 | 2.0 | 0.00 | 0.40 | 0.28 | 76 | 1005.3 |
| 20260507132055 | 55 | 153 | 0.0 | 3.0 | 0.00 | 0.40 | 0.28 | 75 | 1005.4 |
| 20260507131555 | 55 | 172 | 1.0 | 4.0 | 0.00 | 0.40 | 0.28 | 75 | 1005.4 |
| 20260507131054 | 55 | 82 | 1.0 | 5.0 | 0.00 | 0.40 | 0.28 | 77 | 1005.1 |
| 20260507130554 | 54 | 84 | 1.0 | 5.0 | 0.00 | 0.40 | 0.28 | 77 | 1005.2 |
| 20260507130054 | 54 | 65 | 1.0 | 5.0 | 0.00 | 0.40 | 0.28 | 79 | 1005.1 |
| 20260507125556 | 54 | 101 | 0.0 | 4.0 | 0.00 | 0.40 | 0.28 | 81 | 1005.3 |
| 20260507125051 | 54 | 85 | 0.0 | 4.0 | 0.00 | 0.40 | 0.28 | 80 | 1005.5 |
| 20260507124551 | 54 | 71 | 0.0 | 4.0 | 0.00 | 0.40 | 0.28 | 81 | 1005.5 |
| 20260507124050 | 54 | 86 | 0.0 | 2.0 | 0.00 | 0.40 | 0.28 | 82 | 1005.6 |
| 20260507123550 | 54 | 86 | 0.0 | 1.0 | 0.00 | 0.40 | 0.28 | 83 | 1005.4 |
| 20260507123051 | 54 | 87 | 1.0 | 4.0 | 0.00 | 0.40 | 0.28 | 84 | 1005.3 |
| 20260507122550 | 54 | 87 | 1.0 | 4.0 | 0.00 | 0.40 | 0.28 | 84 | 1005.2 |
| 20260507122050 | 54 | 146 | 0.0 | 3.0 | 0.00 | 0.40 | 0.28 | 86 | 1005.2 |
| 20260507121550 | 54 | 78 | 1.0 | 3.0 | 0.00 | 0.40 | 0.28 | 87 | 1005.2 |
| 20260507121050 | 54 | 127 | 1.0 | 5.0 | 0.00 | 0.40 | 0.28 | 88 | 1005.2 |
| 20260507120546 | 54 | 110 | 0.0 | 5.0 | 0.00 | 0.40 | 0.28 | 88 | 1005.0 |
| 20260507120047 | 54 | 41 | 0.0 | 3.0 | 0.00 | 0.40 | 0.28 | 88 | 1005.0 |
| 20260507115547 | 54 | 41 | 0.0 | 3.0 | 0.00 | 0.40 | 0.28 | 88 | 1005.1 |
| 20260507115046 | 54 | 89 | 0.0 | 1.0 | 0.00 | 0.40 | 0.28 | 88 | 1005.1 |
| 20260507114547 | 53 | 89 | 0.0 | 1.0 | 0.00 | 0.40 | 0.28 | 88 | 1005.1 |
| 20260507114047 | 53 | 79 | 0.0 | 1.0 | 0.00 | 0.40 | 0.28 | 88 | 1005.1 |
| 20260507113546 | 53 | 79 | 0.0 | 0.0 | 0.00 | 0.40 | 0.28 | 88 | 1004.9 |
| 20260507112547 | 53 | 79 | 0.0 | 1.0 | 0.00 | 0.40 | 0.28 | 88 | 1005.0 |
| 20260507112044 | 53 | 79 | 0.0 | 1.0 | 0.00 | 0.40 | 0.28 | 88 | 1004.8 |
| 20260507111811 | 53 | 134 | 0.0 | 1.0 | 0.00 | 0.40 | 0.28 | 88 | 1004.7 |
| 20260507111044 | 53 | 134 | 0.0 | 1.0 | 0.00 | 0.40 | 0.28 | 88 | 1004.8 |
| 20260507110542 | 53 | 134 | 0.0 | 0.0 | 0.00 | 0.40 | 0.28 | 88 | 1004.8 |
| 20260507110301 | 53 | 134 | 0.0 | 0.0 | 0.00 | 0.40 | 0.28 | 88 | 1004.8 |
| 20260507105538 | 53 | 134 | 0.0 | 0.0 | 0.00 | 0.40 | 0.28 | 88 | 1004.7 |
| 20260507105036 | 53 | 134 | 0.0 | 0.0 | 0.00 | 0.40 | 0.28 | 88 | 1004.6 |
| 20260507104536 | 53 | 134 | 0.0 | 0.0 | 0.00 | 0.40 | 0.28 | 88 | 1004.5 |
| 20260507104036 | 53 | 134 | 0.0 | 1.0 | 0.00 | 0.40 | 0.28 | 88 | 1004.5 |
| 20260507103536 | 53 | 134 | 0.0 | 1.0 | 0.00 | 0.40 | 0.28 | 88 | 1004.4 |
| 20260507103036 | 53 | 134 | 0.0 | 1.0 | 0.00 | 0.40 | 0.28 | 88 | 1004.3 |
| 20260507102536 | 53 | 139 | 0.0 | 2.0 | 0.00 | 0.40 | 0.28 | 88 | 1004.3 |
| 20260507102258 | 53 | 99 | 0.0 | 2.0 | 0.00 | 0.40 | 0.28 | 88 | 1004.4 |
| 20260507101805 | 53 | 354 | 0.0 | 1.0 | 0.00 | 0.40 | 0.28 | 88 | 1004.3 |
| 20260507101036 | 53 | 109 | 0.0 | 3.0 | 0.00 | 0.40 | 0.28 | 88 | 1004.2 |
| 20260507100758 | 53 | 109 | 0.0 | 3.0 | 0.00 | 0.40 | 0.28 | 88 | 1004.2 |
| 20260507100032 | 53 | 58 | 0.0 | 0.0 | 0.00 | 0.40 | 0.28 | 88 | 1004.2 |
| 20260507095526 | 53 | 58 | 0.0 | 2.0 | 0.00 | 0.40 | 0.28 | 88 | 1004.3 |
| 20260507095241 | 53 | 58 | 0.0 | 2.0 | 0.00 | 0.40 | 0.28 | 88 | 1004.3 |
| 20260507094514 | 53 | 91 | 0.0 | 0.0 | 0.00 | 0.40 | 0.28 | 88 | 1004.4 |
| 20260507094236 | 53 | 91 | 0.0 | 0.0 | 0.00 | 0.40 | 0.28 | 88 | 1004.1 |
| 20260507093502 | 53 | 91 | 0.0 | 2.0 | 0.00 | 0.40 | 0.28 | 88 | 1004.1 |
| 20260507092956 | 53 | 91 | 0.0 | 2.0 | 0.00 | 0.40 | 0.28 | 88 | 1004.2 |
| 20260507092450 | 53 | 103 | 0.0 | 0.0 | 0.00 | 0.40 | 0.28 | 88 | 1004.3 |
| 20260507091944 | 53 | 103 | 0.0 | 0.0 | 0.00 | 0.40 | 0.28 | 88 | 1004.3 |
| 20260507091438 | 54 | 103 | 0.0 | 0.0 | 0.00 | 0.40 | 0.28 | 88 | 1004.2 |
| 20260507090931 | 54 | 103 | 0.0 | 0.0 | 0.00 | 0.40 | 0.28 | 88 | 1004.1 |
| 20260507090650 | 54 | 103 | 0.0 | 0.0 | 0.00 | 0.40 | 0.28 | 88 | 1004.1 |
| 20260507085920 | 54 | 103 | 0.0 | 0.0 | 0.00 | 0.40 | 0.28 | 88 | 1003.9 |
| 20260507084908 | 54 | 103 | 0.0 | 2.0 | 0.00 | 0.40 | 0.28 | 88 | 1003.8 |
| 20260507084627 | 54 | 103 | 0.0 | 2.0 | 0.00 | 0.40 | 0.28 | 88 | 1004.1 |
| 20260507083856 | 54 | 89 | 0.0 | 2.0 | 0.00 | 0.40 | 0.28 | 88 | 1004.1 |
| 20260507083349 | 54 | 264 | 0.0 | 1.0 | 0.00 | 0.40 | 0.28 | 88 | 1004.0 |
| 20260507082844 | 54 | 264 | 0.0 | 1.0 | 0.00 | 0.40 | 0.28 | 88 | 1003.9 |
| 20260507082338 | 54 | 110 | 0.0 | 1.0 | 0.00 | 0.40 | 0.28 | 88 | 1003.8 |
| 20260507081833 | 54 | 110 | 0.0 | 3.0 | 0.00 | 0.40 | 0.28 | 88 | 1003.7 |
| 20260507081326 | 55 | 72 | 0.0 | 3.0 | 0.00 | 0.40 | 0.28 | 88 | 1003.5 |
| 20260507080820 | 55 | 117 | 1.0 | 6.0 | 0.00 | 0.40 | 0.28 | 88 | 1003.2 |
| 20260507080536 | 55 | 117 | 1.0 | 6.0 | 0.00 | 0.40 | 0.28 | 88 | 1003.3 |
| 20260507075808 | 55 | 61 | 1.0 | 6.0 | 0.00 | 0.40 | 0.28 | 88 | 1003.4 |
| 20260507075301 | 55 | 245 | 1.0 | 5.0 | 0.00 | 0.40 | 0.28 | 88 | 1003.3 |
| 20260507074756 | 56 | 131 | 1.0 | 4.0 | 0.00 | 0.40 | 0.28 | 87 | 1003.3 |
| 20260507074250 | 56 | 91 | 1.0 | 4.0 | 0.00 | 0.40 | 0.28 | 87 | 1003.0 |
| 20260507074008 | 56 | 70 | 1.0 | 4.0 | 0.00 | 0.40 | 0.28 | 87 | 1002.9 |
| 20260507073238 | 56 | 74 | 0.0 | 4.0 | 0.00 | 0.40 | 0.28 | 87 | 1002.9 |
| 20260507072732 | 56 | 53 | 0.0 | 3.0 | 0.00 | 0.40 | 0.28 | 87 | 1003.0 |
| 20260507072226 | 56 | 96 | 0.0 | 1.0 | 0.00 | 0.40 | 0.28 | 87 | 1002.9 |
| 20260507071721 | 56 | 289 | 0.0 | 3.0 | 0.00 | 0.40 | 0.28 | 87 | 1002.9 |
| 20260507071214 | 56 | 287 | 0.0 | 3.0 | 0.00 | 0.40 | 0.28 | 87 | 1002.7 |
| 20260507070708 | 56 | 181 | 0.0 | 2.0 | 0.00 | 0.40 | 0.28 | 87 | 1002.7 |
| 20260507070202 | 56 | 122 | 0.0 | 2.0 | 0.01 | 0.40 | 0.28 | 87 | 1002.8 |
| 20260507065150 | 56 | 351 | 0.0 | 5.0 | 0.01 | 0.40 | 0.28 | 87 | 1002.9 |
| 20260507064909 | 56 | 93 | 0.0 | 3.0 | 0.01 | 0.40 | 0.28 | 87 | 1002.8 |
| 20260507064138 | 57 | 150 | 1.0 | 6.0 | 0.01 | 0.40 | 0.28 | 87 | 1002.6 |
| 20260507063127 | 57 | 310 | 2.0 | 6.0 | 0.02 | 0.40 | 0.28 | 87 | 1002.4 |
| 20260507062845 | 57 | 72 | 1.0 | 6.0 | 0.04 | 0.40 | 0.28 | 87 | 1002.2 |
| 20260507062114 | 57 | 91 | 1.0 | 4.0 | 0.06 | 0.40 | 0.28 | 88 | 1002.2 |
| 20260507061608 | 58 | 48 | 1.0 | 4.0 | 0.07 | 0.40 | 0.28 | 87 | 1002.3 |
| 20260507061102 | 58 | 81 | 1.0 | 3.0 | 0.11 | 0.40 | 0.28 | 87 | 1002.5 |
| 20260507060820 | 58 | 63 | 1.0 | 3.0 | 0.12 | 0.39 | 0.28 | 87 | 1002.4 |
| 20260507060050 | 58 | 89 | 0.0 | 1.0 | 0.13 | 0.39 | 0.27 | 87 | 1002.6 |
| 20260507055544 | 58 | 89 | 0.0 | 3.0 | 0.16 | 0.39 | 0.27 | 87 | 1002.7 |
| 20260507055305 | 59 | 100 | 0.0 | 3.0 | 0.17 | 0.39 | 0.27 | 87 | 1003.0 |
| 20260507054533 | 59 | 105 | 0.0 | 3.0 | 0.17 | 0.39 | 0.27 | 87 | 1002.7 |
| 20260507054244 | 59 | 105 | 0.0 | 3.0 | 0.21 | 0.39 | 0.27 | 87 | 1002.5 |
| 20260507053520 | 59 | 123 | 0.0 | 2.0 | 0.27 | 0.39 | 0.27 | 87 | 1002.4 |
| 20260507053014 | 60 | 120 | 0.0 | 3.0 | 0.26 | 0.38 | 0.26 | 87 | 1002.6 |
| 20260507052508 | 60 | 58 | 0.0 | 3.0 | 0.24 | 0.36 | 0.24 | 87 | 1002.7 |
| 20260507052003 | 60 | 187 | 1.0 | 2.0 | 0.22 | 0.34 | 0.22 | 87 | 1002.7 |
| 20260507051456 | 60 | 64 | 1.0 | 2.0 | 0.19 | 0.31 | 0.20 | 87 | 1002.6 |
| 20260507050950 | 60 | 141 | 0.0 | 2.0 | 0.17 | 0.29 | 0.17 | 87 | 1003.2 |
| 20260507050444 | 60 | 228 | 0.0 | 2.0 | 0.15 | 0.27 | 0.15 | 87 | 1003.0 |
| 20260507045937 | 61 | 103 | 0.0 | 1.0 | 0.13 | 0.25 | 0.13 | 87 | 1002.3 |
| 20260507045432 | 61 | 103 | 0.0 | 0.0 | 0.11 | 0.23 | 0.11 | 86 | 1002.9 |
| 20260507044926 | 62 | 103 | 0.0 | 2.0 | 0.10 | 0.22 | 0.10 | 86 | 1002.8 |
| 20260507044421 | 62 | 103 | 0.0 | 2.0 | 0.10 | 0.22 | 0.10 | 85 | 1003.1 |
| 20260507043914 | 62 | 101 | 0.0 | 4.0 | 0.03 | 0.15 | 0.03 | 84 | 1003.1 |
| 20260507043639 | 62 | 70 | 1.0 | 4.0 | 0.00 | 0.12 | 0.00 | 84 | 1003.0 |
| 20260507042903 | 62 | 296 | 1.0 | 3.0 | 0.00 | 0.12 | 0.00 | 84 | 1002.8 |
| 20260507042356 | 62 | 175 | 0.0 | 3.0 | 0.00 | 0.12 | 0.00 | 84 | 1003.0 |
| 20260507041850 | 62 | 96 | 0.0 | 3.0 | 0.00 | 0.12 | 0.00 | 84 | 1002.7 |
| 20260507041348 | 62 | 15 | 0.0 | 3.0 | 0.00 | 0.12 | 0.00 | 84 | 1002.4 |
| 20260507040848 | 62 | 271 | 0.0 | 3.0 | 0.00 | 0.12 | 0.00 | 85 | 1002.3 |
| 20260507040347 | 62 | 142 | 0.0 | 3.0 | 0.00 | 0.12 | 0.00 | 85 | 1002.3 |
| 20260507035848 | 63 | 279 | 1.0 | 4.0 | 0.00 | 0.12 | 0.12 | 86 | 1002.3 |
| 20260507035345 | 63 | 40 | 1.0 | 6.0 | 0.00 | 0.12 | 0.12 | 87 | 1002.3 |
| 20260507034845 | 64 | 61 | 2.0 | 6.0 | 0.00 | 0.12 | 0.12 | 87 | 1002.4 |
| 20260507034343 | 64 | 98 | 1.0 | 5.0 | 0.00 | 0.12 | 0.12 | 87 | 1002.3 |
| 20260507033844 | 64 | 281 | 0.0 | 3.0 | 0.00 | 0.12 | 0.12 | 87 | 1002.2 |
| 20260507033344 | 64 | 195 | 0.0 | 0.0 | 0.00 | 0.12 | 0.12 | 87 | 1002.1 |
| 20260507032841 | 64 | 195 | 0.0 | 0.0 | 0.00 | 0.12 | 0.12 | 87 | 1002.1 |
| 20260507032339 | 64 | 195 | 0.0 | 2.0 | 0.00 | 0.12 | 0.12 | 87 | 1001.9 |
| 20260507031841 | 64 | 195 | 0.0 | 2.0 | 0.00 | 0.12 | 0.12 | 87 | 1001.8 |
| 20260507031336 | 65 | 75 | 0.0 | 1.0 | 0.00 | 0.12 | 0.12 | 87 | 1002.0 |
| 20260507030835 | 65 | 75 | 0.0 | 1.0 | 0.00 | 0.12 | 0.12 | 87 | 1002.1 |
| 20260507030334 | 64 | 75 | 0.0 | 2.0 | 0.00 | 0.12 | 0.12 | 86 | 1002.1 |
| 20260507025834 | 64 | 75 | 0.0 | 2.0 | 0.00 | 0.12 | 0.12 | 86 | 1002.0 |
| 20260507025327 | 64 | 228 | 0.0 | 1.0 | 0.00 | 0.12 | 0.12 | 87 | 1001.8 |
| 20260507024825 | 64 | 216 | 0.0 | 0.0 | 0.00 | 0.12 | 0.12 | 87 | 1001.7 |
| 20260507024324 | 64 | 216 | 0.0 | 0.0 | 0.00 | 0.12 | 0.12 | 87 | 1001.6 |
| 20260507023821 | 64 | 216 | 0.0 | 0.0 | 0.00 | 0.12 | 0.12 | 87 | 1001.3 |
| 20260507023551 | 64 | 216 | 0.0 | 0.0 | 0.00 | 0.12 | 0.12 | 87 | 1001.5 |
| 20260507022821 | 64 | 216 | 0.0 | 0.0 | 0.00 | 0.12 | 0.12 | 87 | 1001.5 |
| 20260507022319 | 64 | 216 | 0.0 | 0.0 | 0.00 | 0.12 | 0.12 | 87 | 1001.4 |
| 20260507021819 | 64 | 216 | 0.0 | 0.0 | 0.00 | 0.12 | 0.12 | 87 | 1001.3 |
| 20260507021316 | 64 | 216 | 0.0 | 0.0 | 0.00 | 0.12 | 0.12 | 87 | 1001.5 |
| 20260507020814 | 64 | 216 | 0.0 | 0.0 | 0.00 | 0.12 | 0.12 | 87 | 1001.4 |
| 20260507020311 | 64 | 216 | 0.0 | 0.0 | 0.00 | 0.12 | 0.12 | 87 | 1001.6 |
| 20260507015809 | 64 | 216 | 0.0 | 0.0 | 0.00 | 0.12 | 0.12 | 87 | 1001.5 |
| 20260507015307 | 64 | 216 | 0.0 | 0.0 | 0.00 | 0.12 | 0.12 | 87 | 1001.4 |
| 20260507014806 | 64 | 216 | 0.0 | 0.0 | 0.00 | 0.12 | 0.12 | 87 | 1001.4 |
| 20260507014305 | 64 | 216 | 0.0 | 0.0 | 0.00 | 0.12 | 0.12 | 87 | 1001.5 |
| 20260507014025 | 64 | 216 | 0.0 | 0.0 | 0.00 | 0.12 | 0.12 | 87 | 1001.6 |
| 20260507013304 | 64 | 216 | 0.0 | 0.0 | 0.00 | 0.12 | 0.12 | 87 | 1001.8 |
| 20260507012801 | 64 | 216 | 0.0 | 0.0 | 0.00 | 0.12 | 0.12 | 87 | 1002.1 |
| 20260507012259 | 64 | 216 | 0.0 | 0.0 | 0.00 | 0.12 | 0.12 | 87 | 1002.1 |
| 20260507011757 | 64 | 216 | 0.0 | 0.0 | 0.00 | 0.12 | 0.12 | 87 | 1002.1 |
| 20260507011259 | 64 | 216 | 0.0 | 0.0 | 0.00 | 0.12 | 0.12 | 87 | 1002.1 |
| 20260507010248 | 64 | 216 | 0.0 | 0.0 | 0.00 | 0.12 | 0.12 | 87 | 1001.9 |
| 20260507005741 | 64 | 216 | 0.0 | 0.0 | 0.00 | 0.12 | 0.12 | 87 | 1001.8 |
| 20260507005237 | 65 | 216 | 0.0 | 0.0 | 0.00 | 0.12 | 0.12 | 86 | 1001.6 |
| 20260507004950 | 65 | 216 | 0.0 | 0.0 | 0.00 | 0.12 | 0.12 | 86 | 1001.6 |
| 20260507004223 | 65 | 216 | 0.0 | 0.0 | 0.00 | 0.12 | 0.12 | 86 | 1001.5 |
| 20260507003717 | 65 | 216 | 0.0 | 0.0 | 0.00 | 0.12 | 0.12 | 86 | 1001.7 |
| 20260507003211 | 65 | 216 | 0.0 | 0.0 | 0.00 | 0.12 | 0.12 | 85 | 1001.5 |
| 20260507002708 | 66 | 216 | 0.0 | 0.0 | 0.00 | 0.12 | 0.12 | 85 | 1001.4 |
| 20260507002159 | 66 | 216 | 0.0 | 0.0 | 0.00 | 0.12 | 0.12 | 85 | 1001.4 |
| 20260507001653 | 66 | 216 | 0.0 | 0.0 | 0.00 | 0.12 | 0.12 | 84 | 1001.5 |
| 20260507001148 | 66 | 216 | 0.0 | 0.0 | 0.00 | 0.12 | 0.12 | 84 | 1001.6 |
| 20260507000641 | 67 | 216 | 0.0 | 0.0 | 0.00 | 0.12 | 0.12 | 84 | 1001.6 |
| 20260507000137 | 67 | 216 | 0.0 | 0.0 | 0.00 | 0.12 | 0.12 | 84 | 1001.4 |
| 20260506235629 | 67 | 216 | 0.0 | 0.0 | 0.00 | 0.12 | 0.12 | 83 | 1001.5 |
| 20260506235123 | 67 | 216 | 0.0 | 0.0 | 0.00 | 0.12 | 0.12 | 83 | 1001.3 |
| 20260506234617 | 67 | 216 | 0.0 | 0.0 | 0.00 | 0.12 | 0.12 | 83 | 1001.3 |
| 20260506234110 | 68 | 216 | 0.0 | 0.0 | 0.00 | 0.12 | 0.12 | 82 | 1001.2 |
| 20260506233607 | 68 | 216 | 0.0 | 1.0 | 0.00 | 0.12 | 0.12 | 82 | 1001.2 |
| 20260506233059 | 68 | 216 | 0.0 | 1.0 | 0.00 | 0.12 | 0.12 | 82 | 1001.1 |
| 20260506232047 | 69 | 168 | 0.0 | 3.0 | 0.00 | 0.12 | 0.12 | 81 | 1000.9 |
| 20260506231037 | 69 | 166 | 1.0 | 3.0 | 0.00 | 0.12 | 0.12 | 80 | 1000.9 |
| 20260506230530 | 69 | 176 | 1.0 | 6.0 | 0.00 | 0.12 | 0.12 | 80 | 1001.0 |
| 20260506230023 | 69 | 184 | 1.0 | 6.0 | 0.00 | 0.12 | 0.12 | 80 | 1001.0 |
| 20260506225518 | 69 | 235 | 1.0 | 5.0 | 0.00 | 0.12 | 0.12 | 79 | 1001.1 |
| 20260506225011 | 69 | 242 | 1.0 | 5.0 | 0.00 | 0.12 | 0.12 | 79 | 1000.9 |
| 20260506224507 | 69 | 213 | 1.0 | 5.0 | 0.00 | 0.12 | 0.12 | 79 | 1000.8 |
| 20260506223959 | 70 | 214 | 1.0 | 4.0 | 0.00 | 0.12 | 0.12 | 79 | 1000.8 |
| 20260506223453 | 70 | 186 | 1.0 | 5.0 | 0.00 | 0.12 | 0.12 | 79 | 1000.9 |
| 20260506222947 | 70 | 204 | 1.0 | 5.0 | 0.00 | 0.12 | 0.12 | 78 | 1000.9 |
| 20260506222706 | 70 | 207 | 2.0 | 10.0 | 0.00 | 0.12 | 0.12 | 78 | 1000.9 |
| 20260506221937 | 70 | 200 | 2.0 | 10.0 | 0.00 | 0.12 | 0.12 | 77 | 1000.9 |
| 20260506221430 | 70 | 204 | 3.0 | 8.0 | 0.00 | 0.12 | 0.12 | 77 | 1001.0 |
| 20260506221147 | 71 | 195 | 3.0 | 8.0 | 0.00 | 0.12 | 0.12 | 77 | 1001.0 |
| 20260506220417 | 71 | 205 | 2.0 | 6.0 | 0.00 | 0.12 | 0.12 | 76 | 1000.8 |
| 20260506215911 | 71 | 205 | 1.0 | 5.0 | 0.00 | 0.12 | 0.12 | 76 | 1000.9 |
| 20260506215406 | 71 | 174 | 1.0 | 6.0 | 0.00 | 0.12 | 0.12 | 77 | 1001.0 |
| 20260506214859 | 71 | 202 | 2.0 | 7.0 | 0.00 | 0.12 | 0.12 | 77 | 1001.1 |
| 20260506214353 | 71 | 212 | 2.0 | 7.0 | 0.00 | 0.12 | 0.12 | 76 | 1001.0 |
| 20260506213847 | 71 | 279 | 2.0 | 6.0 | 0.00 | 0.12 | 0.12 | 76 | 1000.9 |
| 20260506213341 | 71 | 242 | 3.0 | 8.0 | 0.00 | 0.12 | 0.12 | 75 | 1000.8 |
| 20260506212836 | 71 | 283 | 2.0 | 8.0 | 0.00 | 0.12 | 0.12 | 75 | 1000.7 |
| 20260506212329 | 71 | 269 | 2.0 | 8.0 | 0.00 | 0.12 | 0.12 | 77 | 1000.7 |
| 20260506211823 | 71 | 160 | 2.0 | 8.0 | 0.00 | 0.12 | 0.12 | 76 | 1000.6 |
| 20260506211317 | 71 | 236 | 2.0 | 7.0 | 0.00 | 0.12 | 0.12 | 77 | 1000.6 |
| 20260506210812 | 71 | 56 | 3.0 | 8.0 | 0.00 | 0.12 | 0.12 | 77 | 1000.5 |
| 20260506210307 | 70 | 222 | 4.0 | 11.0 | 0.00 | 0.12 | 0.12 | 77 | 1000.4 |
| 20260506205759 | 71 | 213 | 3.0 | 11.0 | 0.00 | 0.12 | 0.12 | 77 | 1000.4 |
| 20260506205253 | 71 | 193 | 2.0 | 10.0 | 0.00 | 0.12 | 0.12 | 78 | 1000.4 |
| 20260506204747 | 71 | 209 | 2.0 | 10.0 | 0.00 | 0.12 | 0.12 | 78 | 1000.4 |
| 20260506204242 | 70 | 198 | 2.0 | 7.0 | 0.00 | 0.12 | 0.12 | 79 | 1000.3 |
| 20260506203737 | 70 | 217 | 2.0 | 6.0 | 0.00 | 0.12 | 0.12 | 79 | 1000.4 |
| 20260506203229 | 70 | 221 | 3.0 | 7.0 | 0.00 | 0.12 | 0.12 | 80 | 1000.4 |
| 20260506202723 | 70 | 193 | 3.0 | 8.0 | 0.00 | 0.12 | 0.12 | 79 | 1000.4 |
| 20260506202217 | 70 | 227 | 3.0 | 8.0 | 0.00 | 0.12 | 0.12 | 79 | 1000.4 |
| 20260506201711 | 70 | 242 | 3.0 | 9.0 | 0.00 | 0.12 | 0.12 | 79 | 1000.5 |
| 20260506201434 | 70 | 215 | 3.0 | 11.0 | 0.00 | 0.12 | 0.12 | 78 | 1000.5 |
| 20260506200659 | 70 | 216 | 2.0 | 11.0 | 0.00 | 0.12 | 0.12 | 78 | 1000.5 |
| 20260506200153 | 70 | 258 | 2.0 | 8.0 | 0.00 | 0.12 | 0.12 | 78 | 1000.4 |
| 20260506195648 | 70 | 198 | 2.0 | 6.0 | 0.00 | 0.12 | 0.12 | 79 | 1000.4 |
| 20260506195141 | 71 | 224 | 2.0 | 6.0 | 0.00 | 0.12 | 0.12 | 77 | 1000.5 |
| 20260506194637 | 71 | 153 | 1.0 | 5.0 | 0.00 | 0.12 | 0.12 | 79 | 1000.4 |
| 20260506194130 | 71 | 285 | 2.0 | 8.0 | 0.00 | 0.12 | 0.12 | 78 | 1000.4 |
| 20260506193623 | 70 | 220 | 2.0 | 8.0 | 0.00 | 0.12 | 0.12 | 79 | 1000.6 |